Other Public Products
Issued by NWS Charleston, SC

Home | Current Version | Previous Version | Text Only | Print | Product List | Glossary On
Versions: 1 2 3 4 5 6 7 8 9 10 11 12 13 14 15 16 17 18 19 20 21 22 23 24 25 26 27 28 29 30 31 32 33 34 35 36 37 38 39 40 41 42 43 44 45 46 47 48 49 50
000
FPUS82 KCHS 090112
OPUCHS

TEST...KCHS/KSAV Gateway Observations...TEST
National Weather Service Charleston SC
800 PM EST THU DEC 08 2016

NOTE: "fair" indicates few or no clouds below 12,000 feet with no
significant weather and/or obstructions to visibility.

SCZ050-WAZ558-NCZ071-TXZ119-213-PAZ071-DCZ001-FLZ074-172-MI076-
NYZ176-178-MAZ016-IL014-TNZ027-NJZ106-GAZ044-MD014-090200-
...Gateway Observations for Charleston International...

CITY           SKY/WX    TMP DP  RH WIND       PRES   REMARKS
Chas Airport   MOCLDY    54  43  66 NW13      30.21R
Seattle        CLOUDY    35  13  40 E15G21    29.93F WCI  25
Charlotte      CLOUDY    42  20  41 NW7       30.24R
Dallas DFW     CLOUDY    36  13  38 N10       30.63R WCI  28
Dallas Love    CLOUDY    37  16  42 N9        30.64R WCI  30
Philladelphia  PTCLDY    37  16  42 NW16      30.06R WCI  28
Wash National  PTCLDY    40  15  36 NW13      30.15R WCI  32
Baltimore      PTCLDY    36  18  48 NW18G24   30.11R WCI  26
Miami          CLOUDY    74  72  93 NW3       30.10S
Detroit        CLOUDY    26  20  77 SW15      30.22R WCI  14
Newark         PTCLDY    38  17  42 W15       29.97R WCI  29
Laguardia      PTCLDY    41  18  39 W18G28    29.95S
J F K          PTCLDY    40  17  39 W18G29    29.97S WCI  31
Boston Logan   PTCLDY    37  23  56 W16G23    29.83S WCI  28
Ft. Lauderdale MOCLDY    75  71  87 N5        30.09S
Chicago O`Hare FLURRIES  23  15  71 NW14      30.38R WCI  11
Chicago Midway FLURRIES  24  14  65 W14       30.39R WCI  12
Houston Bush   CLOUDY    44  33  65 N16G24    30.51R
Houston Hobby  CLOUDY    45  32  60 N18G28    30.48R
Nashville      MOCLDY    31  14  49 NW6       30.48R WCI  25
Atlanta        PTCLDY    38  21  50 NW7       30.33R WCI  33

$$

GAZ044-118-TXZ119-213-NCZ071-DCZ001-MDZ014-506-PAZ021-071-NJZ106-
NYZ176-178-MAZ106-OHZ011-021-055-MIZ076-KYZ091-ILZ014-INZ047-
MNZ060-090200-
...Gateway Observations for Savannah International...

CITY           SKY/WX    TMP DP  RH WIND       PRES   REMARKS
Savannah Arpt  CLOUDY    56  37  49 NW13      30.24R
Atlanta        PTCLDY    38  21  50 NW7       30.33R WCI  33
Charlotte      CLOUDY    42  20  41 NW7       30.24R
Dallas DFW     CLOUDY    36  13  38 N10       30.63R WCI  28
Houston Bush   CLOUDY    44  33  65 N16G24    30.51R
Wash National  PTCLDY    40  15  36 NW13      30.15R WCI  32
Wash Dulles    PTCLDY    35  14  42 NW17G23   30.15R WCI  25
Baltimore      PTCLDY    36  18  48 NW18G24   30.11R WCI  26
Philadelphia   PTCLDY    37  16  42 NW16      30.06R WCI  28
Newark         PTCLDY    38  17  42 W15       29.97R WCI  29
Laguardia      PTCLDY    41  18  39 W18G28    29.95S
J F K          PTCLDY    40  17  39 W18G29    29.97S WCI  31
Boston         PTCLDY    37  23  56 W16G23    29.83S WCI  28
Pittsburg      CLOUDY    26  13  57 W16G23    30.20R WCI  14
Akron          LGT SNOW  23  14  68 W13G22    30.21R WCI  11
Cleveland      FLURRIES  26  15  63 W20       30.25R WCI  12
Cincinnati     FLURRIES  24  14  65 NW14      30.39S WCI  12
Columbus       FLURRIES  24  19  82 W12       30.34S WCI  13
Detroit        CLOUDY    26  20  77 SW15      30.22R WCI  14
Chicago O`Hare FLURRIES  23  15  71 NW14      30.38R WCI  11
Minneapolis    FLURRIES  21  11  65 NW12      30.47S WCI   9
Indianapolis   FLURRIES  22  14  71 W12       30.42R WCI  10

$$




USA.gov is the U.S. government's official web portal to all federal, state and local government web resources and services.